Location: Newark
(26.8229°N, 81.7649°W)
Time: 23:02:33
(UTC+00:00)

N. Korean satellite - Pass Details

Date: 27 January 2020
Orbit: 456 x 505 km, 97.2° (Epoch: 19 February)

Event Time Altitude Azimuth Distance (km) Brightness Sun altitude
Rises 11:12:57 0° 7° (N) 2,551 10.2 -14.0°
Reaches altitude 10° 11:15:01 10° 5° (N) 1,676 9.2 -13.6°
Maximum altitude 11:18:36 68° 283° (WNW) 534 6.5 -12.8°
Drops below altitude 10° 11:22:13 10° 199° (SSW) 1,692 9.3 -12.0°
Sets 11:24:18 0° 197° (SSW) 2,577 10.2 -11.5°
